Tracking 34406 objects as of 15-Jun-2026
HD Live streaming from Space Station
objects crossing your sky now

CZ-4B DEB

Track CZ-4B DEB now!
10-day predictions


NORAD ID: 29216
Int'l Code: 2002-024G
Perigee: 842.0 km
Apogee: 1,176.8 km
Inclination: 98.8 °
Period: 105.2 minutes
Semi major axis: 7380 km
RCS: 0.0014 m2 (small)
Launch date: May 15, 2002
Source: People's Republic of China (PRC)
Launch site: Taiyaun Space Center, China (TSC)

Note: This is SATELLITE DEBRIS
Your satellite tracking list
Your tracking list is empty




NASA's NSSDC Master Catalog

Two Line Element Set (TLE):
1 29216U 02024G   26161.62614184  .00000268  00000-0  29373-3 0  9999
2 29216  98.8421 302.3542 0226807 117.7948 244.6391 13.69254888698540
Source of the keplerian elements: AFSPC